Content
SEND FEEDBACK

Daily
Averages
Monthly
Summary
United States of America

COURTENAY, NORTH DAKOTA


Home > North America > United States > North Dakota
Elevation: 1520 feet     Latitude: 47 13N     Longitude: 098 34W

WEATHER
 
SELECT A DAY
Number of Records: 204,011;   Date Range: 1/1/95 - 9/3/14
 
SHARE

PRINT THIS DATA

[ ← Previous Day ]
WEATHER ALMANAC - FEBRUARY 5, 2013
[ Next Day → ]
[ °C ]   °F
Weather ElementAverageHighLow
Temperature18 °F33.8 °F (1:01 am)10 °F (9:56 pm)
Dewpoint13.1 °F30.2 °F (1:01 am)5 °F (9:56 am)
Humidity81.2 %93 % (4:17 am)73 % (11:56 am)
Barometer29.89 in30.05 in (12:56 pm)29.59 in (1:01 am)
Wind Speed9.2 mph20.7 mph (4:56 am)
Weather ElementAverage
Visibility8.8 mi
Wind DirectionSSE (156 °)

Weather ElementTotal
Precipitation0.04 in
Heating Degree Days43.1 (Base 65)
Averaged from 40 records on February 5, 2013
WEATHER CONDITIONS BREAKOUT
WIND DIRECTION BREAKOUT
WEATHER BY HOUR - FEBRUARY 5, 2013
[ °C ]   °F
Local TimeTemperatureDewpointHumidityBarometerVisibilityWind DirectionWind SpeedGust SpeedPrecipitationEventsConditions
1:01 AM33.8 °F30.2 °F87 %29.59 in2.0 miWNW (300°)13.8 mph0.00 inSnowLight Snow
1:08 AM33.8 °F30.2 °F87 %29.59 in1.5 miWNW (300°)12.7 mph0.01 inSnowLight Snow
1:15 AM33.8 °F30.2 °F87 %29.59 in3.0 miWNW (290°)12.7 mph0.01 inSnowLight Snow
1:43 AM33.8 °F30.2 °F87 %29.60 in10.0 miWNW (300°)12.7 mph0.01 inOvercast
1:56 AM33.1 °F30.0 °F89 %29.67 in10.0 miWNW (300°)12.7 mph0.01 inOvercast
2:56 AM32.0 °F28.0 °F85 %29.69 in10.0 miWNW (300°)15.0 mphOvercast
3:56 AM32.0 °F28.0 °F85 %29.71 in10.0 miNNW (330°)15.0 mph0.00 inOvercast
4:17 AM28.4 °F26.6 °F93 %29.67 in9.0 miNNE (20°)13.8 mphOvercast
4:25 AM26.6 °F24.8 °F93 %29.68 in2.5 miNorth (10°)12.7 mph0.00 inSnowLight Snow
4:38 AM26.6 °F23.0 °F86 %29.69 in6.0 miNorth (10°)12.7 mph0.00 inOvercast
4:56 AM24.1 °F19.9 °F84 %29.78 in5.0 miNNE (20°)20.7 mph0.00 inSnowLight Snow
5:25 AM21.2 °F17.6 °F86 %29.74 in9.0 miNorth (360°)19.6 mph0.00 inOvercast
5:56 AM19.9 °F16.0 °F85 %29.85 in9.0 miNorth (360°)16.1 mph0.00 inOvercast
6:20 AM17.6 °F12.2 °F79 %29.79 in10.0 miNorth (10°)18.4 mphOvercast
6:56 AM15.1 °F10.9 °F84 %29.89 in9.0 miNorth (10°)16.1 mphOvercast
7:56 AM12.0 °F7.0 °F80 %29.94 in7.0 miNNE (20°)16.1 mph0.00 inOvercast
8:20 AM12.2 °F6.8 °F79 %29.88 in10.0 miNorth (360°)11.5 mphOvercast
8:56 AM10.9 °F6.1 °F81 %29.98 in10.0 miNorth (10°)12.7 mphOvercast
9:56 AM10.9 °F5.0 °F77 %30.01 in10.0 miNorth (360°)10.4 mphOvercast
10:56 AM10.9 °F5.0 °F77 %30.03 in10.0 miNorth (10°)9.2 mphOvercast
11:12 AM10.4 °F5.0 °F79 %29.96 in10.0 miNorth (360°)6.9 mphOvercast
11:56 AM12.0 °F5.0 °F73 %30.04 in10.0 miNNE (20°)5.8 mphOvercast
12:45 PM12.2 °F5.0 °F73 %29.97 in10.0 miCalmOvercast
12:56 PM12.0 °F5.0 °F73 %30.05 in10.0 miCalmOvercast
1:56 PM12.0 °F6.1 °F77 %30.05 in10.0 miNNW (340°)3.5 mphOvercast
2:19 PM12.2 °F6.8 °F79 %29.97 in10.0 miCalmOvercast
2:56 PM12.9 °F6.1 °F74 %30.05 in10.0 miCalmOvercast
3:56 PM14.0 °F7.0 °F74 %30.04 in10.0 miCalmOvercast
4:31 PM14.0 °F6.8 °F73 %29.97 in10.0 miSSE (160°)3.5 mphOvercast
4:56 PM14.0 °F7.0 °F74 %30.05 in10.0 miCalmOvercast
5:03 PM14.0 °F6.8 °F73 %29.96 in10.0 miSE (140°)5.8 mphOvercast
5:56 PM14.0 °F8.1 °F77 %30.05 in10.0 miSouth (180°)5.8 mphOvercast
6:56 PM14.0 °F8.1 °F77 %30.05 in10.0 miSouth (170°)5.8 mphOvercast
8:27 PM14.0 °F8.6 °F79 %29.94 in10.0 miSSE (150°)6.9 mphOvercast
8:56 PM14.0 °F9.0 °F80 %30.04 in10.0 miSouth (170°)5.8 mphOvercast
9:33 PM10.4 °F6.8 °F85 %29.94 in10.0 miSouth (170°)9.2 mphMostly Cloudy
9:53 PM10.4 °F6.8 °F85 %29.94 in10.0 miSouth (180°)4.6 mphScattered Clouds
9:56 PM10.0 °F6.1 °F84 %30.05 in10.0 miSouth (180°)5.8 mphScattered Clouds
10:56 PM12.0 °F8.1 °F84 %30.04 in10.0 miSouth (170°)5.8 mphOvercast
11:56 PM14.0 °F10.0 °F84 %30.03 in10.0 miSouth (170°)6.9 mphOvercast
Hourly data recorded from KJMS, located miles away from Courtenay, North Dakota







STORIES FROM OUR PARTNERS